Bodensee (Kressbronn): 4,4°C  -  Teich der Wetterzentrale Bad Schussenried: 5,0°C  
22.01.2020Höhe
ü. NN
ZeitTemperatur (°C)Nieder-
schlag
Luft-
feuchte
Luft-
druck
Wind
StationaktuellMinimumMaximumaktuellMaximum
Aldingen654 m04:31-6,5-7,7 (07:47)-5,7 (15:22)0,0 l/m²92%1037,60,0 km/h (0 Bft) S-SW7,4 km/h (2 Bft) W-NW (13:16)
Allmendingen541 m04:30-3,3-3,3 (04:15)-2,8 (14:25)0,0 l/m²93%1036,54,8 km/h (1 Bft) S-SO17,7 km/h (3 Bft) O-NO (05:00)
Altshausen574 m04:30-4,3-4,5 (03:50)-3,8 (00:00)0,0 l/m²86%1035,11,6 km/h (1 Bft) SO8,0 km/h (2 Bft) O (00:39)
Amstetten-Reutti663 m04:30-3,8-3,9 (03:35)-3,5 (13:55)0,0 l/m²96%1036,09,7 km/h (2 Bft) SO27,4 km/h (4 Bft) O (05:10)
Amtzell-Grenis677 m04:30-5,4-5,5 (04:20)-4,9 (00:55)0,0 l/m²79%1037,91,6 km/h (1 Bft) O1,6 km/h (1 Bft) O (00:00)
Aulendorf570 m04:30-4,6-4,6 (03:20)-3,7 (00:00)0,0 l/m²94%1036,10,0 km/h (0 Bft) S4,8 km/h (1 Bft) N-NO (01:25)
Bad Krozingen233 m04:30-3,6-3,6 (06:55)-2,1 (15:50)0,0 l/m²95%1037,30,0 km/h (0 Bft) W-NW8,2 km/h (2 Bft) N-NO (16:50)
Bad Saulgau595 m04:30-4,6-4,7 (04:30)-3,9 (14:10)0,0 l/m²94%1035,50,0 km/h (0 Bft) W-SW17,7 km/h (3 Bft) S-SW (05:45)
Bad Saulgau-Lampertsweiler627 m04:30-4,7-4,9 (04:20)-4,0 (00:00)0,0 l/m²91%1038,60,0 km/h (0 Bft) O11,3 km/h (2 Bft) O (04:10)
Bad Schussenried572 m04:30-4,0-4,0 (04:30)-3,2 (00:00)0,0 l/m²97%1035,00,0 km/h (0 Bft) NO4,8 km/h (1 Bft) NO (02:05)
Bergatreute615 m04:30-4,5-4,7 (04:10)-4,1 (00:45)0,0 l/m²97%1036,30,0 km/h (0 Bft) SO9,7 km/h (2 Bft) S-SO (00:45)
Biberach (Riss), Boehringer533 m04:40-3,6-3,8 (04:40)-2,9 (00:20)1,0 l/m²99%1034,05,8 km/h (2 Bft) SW12,2 km/h (3 Bft) SW (04:40)
Biberach (Riss), Realschule553 m04:30-4,2-4,3 (04:15)-3,6 (00:10)0,0 l/m²97%1037,48,0 km/h (2 Bft) O-SO16,1 km/h (3 Bft) W-SW (04:05)
Burgrieden523 m04:30-3,4-3,4 (03:50)-3,0 (00:00)0,0 l/m²91%1036,53,2 km/h (1 Bft) SW9,7 km/h (2 Bft) S-SO (03:55)
Burgrieden-Hochstetten510 m04:30-3,3-3,3 (03:50)-2,8 (12:30)0,0 l/m²94%1036,94,8 km/h (1 Bft) S-SW17,7 km/h (3 Bft) O (05:55)
Ebersbach579 m04:30-4,3-4,3 (03:40)-3,6 (00:00)0,0 l/m²96%1037,30,0 km/h (0 Bft) SW8,0 km/h (2 Bft) O (00:20)
Ebersbach-Boos605 m04:30-4,8-4,8 (04:30)-4,0 (00:10)0,0 l/m²97%1037,20,0 km/h (0 Bft) SO0,0 km/h (0 Bft) O-NO (00:00)
Ebersbach-Menzenweiler661 m04:30-4,8-4,9 (04:10)-4,1 (00:05)0,0 l/m²97%1037,23,2 km/h (1 Bft) S8,0 km/h (2 Bft) O (00:25)
Erlenmoos645 m04:30-3,9-3,9 (03:55)-3,3 (00:00)0,0 l/m²93%1036,64,8 km/h (1 Bft) S-SW9,7 km/h (2 Bft) N (01:55)
Ertingen569 m04:30-4,0-4,0 (02:10)-3,6 (00:00)0,0 l/m²96%1036,61,6 km/h (1 Bft) SO8,0 km/h (2 Bft) N (02:00)
Friedrichshafen405 m04:30-2,3-2,3 (08:20)-2,0 (14:45)0,0 l/m²92%1037,48,0 km/h (2 Bft) N-NO19,3 km/h (3 Bft) NO (22:05)
Günzburg443 m04:30-2,6-2,8 (03:25)-2,2 (00:05)0,0 l/m²91%1033,93,2 km/h (1 Bft) S9,7 km/h (2 Bft) NO (00:35)
Hochdorf-Appendorf537 m04:30-4,3-4,4 (04:10)-3,6 (01:00)0,0 l/m²78%1036,38,0 km/h (2 Bft) S12,9 km/h (3 Bft) SO (04:05)
Höchsten802 m04:30-7,2-7,3 (04:15)-4,7 (01:05)0,0 l/m²92%1034,80,0 km/h (0 Bft) W-NW6,4 km/h (2 Bft) N (00:00)
Horgenzell618 m04:30-4,9-5,0 (03:30)-4,4 (01:05)0,0 l/m²95%1035,40,0 km/h (0 Bft) O12,9 km/h (3 Bft) NO (00:10)
Hoßkirch632 m04:30-4,9-5,0 (04:20)-4,3 (00:00)0,0 l/m²95%1035,51,6 km/h (1 Bft) S9,7 km/h (2 Bft) O (01:35)
Isny, Am Dreifingerbach695 m04:30-8,1-8,6 (03:45)-6,0 (00:00)0,0 l/m²93%1036,30,0 km/h (0 Bft) O0,0 km/h (0 Bft) O-NO (04:30)
Isny, Weidachweg706 m04:30-7,4-7,7 (03:05)-6,2 (00:00)0,0 l/m²87%1038,73,2 km/h (1 Bft) S-SO6,4 km/h (2 Bft) N (00:20)
Kappel-Grafenhausen163 m04:25-2,2-3,6 (02:50)-2,2 (14:50)0,0 l/m²93%1035,03,2 km/h (1 Bft) N14,5 km/h (3 Bft) N (15:20)
Kirchberg an der Iller584 m04:30-3,7-3,7 (04:30)-2,9 (05:00)0,0 l/m²87%1025,02,3 km/h (1 Bft) SO8,9 km/h (2 Bft) W-NW (05:30)
Kißlegg-Staibshof709 m04:30-5,3-5,3 (03:20)-4,8 (00:00)0,0 l/m²96%1036,80,0 km/h (0 Bft) O0,0 km/h (0 Bft) NO (00:00)
Kressbronn398 m04:32-1,9-3,0 (00:00)-1,8 (03:00)0,0 l/m²89%1036,13,2 km/h (1 Bft) N-NW9,7 km/h (2 Bft) N-NW (00:26)
Kreuzthal-Steinberg-Alpe930 m04:30-2,1-3,2 (01:00)-1,1 (04:20)0,0 l/m²100%1035,00,4 km/h (0 Bft) SO4,7 km/h (1 Bft) SO (03:20)
Kreuzthal-Steinberggipfel1040 m04:300,70,2 (03:40)2,4 (02:00)-64%1035,04,7 km/h (1 Bft) S-SW11,9 km/h (3 Bft) W-SW (00:20)
Kristberg im Montafon (AT)1425 m04:325,23,4 (02:31)5,2 (01:41)0,0 l/m²32%1041,68,6 km/h (2 Bft) N-NO11,9 km/h (3 Bft) N (01:36)
Laupheim500 m04:30-3,4-3,6 (04:00)-3,1 (00:00)0,0 l/m²93%1036,04,8 km/h (1 Bft) S-SW9,7 km/h (2 Bft) W (03:45)
Leutkirch-Heggelbach670 m04:30-5,2-5,3 (03:00)-4,4 (00:00)0,0 l/m²94%1036,00,0 km/h (0 Bft) S-SW0,0 km/h (0 Bft) N (00:00)
Lindau-Insel420 m04:30-1,2-1,5 (08:25)-1,1 (14:35)0,0 l/m²90%1036,56,4 km/h (2 Bft) NO12,9 km/h (3 Bft) W (12:25)
Lindau-Stadt412 m04:30-1,3-1,8 (08:15)-1,3 (12:30)0,0 l/m²91%1036,73,2 km/h (1 Bft) NO12,9 km/h (3 Bft) W (13:00)
Maierhöfen im Allgäu733 m04:30-7,6-8,0 (03:00)-6,7 (00:00)0,0 l/m²93%1037,10,0 km/h (0 Bft) O-SO4,8 km/h (1 Bft) O-SO (01:55)
Maselheim543 m04:30-4,0-4,1 (03:20)-3,7 (14:05)0,0 l/m²94%1036,74,8 km/h (1 Bft) W19,3 km/h (3 Bft) O (05:15)
Maselheim-Sulmingen548 m04:30-4,1-4,1 (04:10)-3,6 (14:15)0,0 l/m²95%1038,39,7 km/h (2 Bft) W16,1 km/h (3 Bft) O-SO (05:00)
Mietingen-Baltringen528 m04:30-3,9-3,9 (04:30)-3,1 (00:45)0,0 l/m²92%1038,60,0 km/h (0 Bft) W-SW8,0 km/h (2 Bft) S (03:45)
Mindelheim-Apfeltrach620 m04:31-5,1-5,1 (04:27)-3,2 (00:00)0,0 l/m²93%1037,04,8 km/h (1 Bft) S-SO11,3 km/h (2 Bft) S-SW (03:53)
Mittelbiberach577 m04:33-4,3-4,4 (04:15)-3,8 (01:00)0,0 l/m²93%1037,70,0 km/h (0 Bft) SW9,6 km/h (2 Bft) O (04:22)
Neresheim552 m04:01-4,1-4,1 (04:01)-3,6 (00:00)0,0 l/m²100%1033,56,5 km/h (2 Bft) S-SW6,5 km/h (2 Bft) S-SW (04:01)
Neukirch570 m04:30-3,3-3,8 (07:55)-3,1 (15:05)0,0 l/m²95%1036,66,4 km/h (2 Bft) NO17,7 km/h (3 Bft) O-NO (06:20)
Ochsenhausen, Birkenstraße613 m04:30-3,9-3,9 (04:10)-3,3 (14:05)0,0 l/m²89%1037,00,0 km/h (0 Bft) O-SO0,0 km/h (0 Bft) N-NW (05:00)
Ochsenhausen, Unt. Wiesen575 m04:30-4,3-4,4 (04:05)-3,7 (00:00)0,0 l/m²95%1038,16,4 km/h (2 Bft) SW11,3 km/h (2 Bft) O (01:40)
Opfenbach-Göritz561 m04:30-4,3-4,3 (04:19)-3,7 (02:12)0,0 l/m²92%1035,01,4 km/h (1 Bft) N6,5 km/h (2 Bft) N (04:09)
Ostrach619 m04:30-3,7-3,7 (04:15)-2,9 (00:00)0,0 l/m²96%1034,94,8 km/h (1 Bft) S-SO8,0 km/h (2 Bft) O-NO (01:20)
Ravensburg, Goethestraße428 m04:40-3,1-3,2 (04:05)-2,3 (00:00)0,0 l/m²93%1036,33,2 km/h (1 Bft) O-SO11,3 km/h (2 Bft) NO (00:05)
Ravensburg, Springerstraße441 m04:30-2,7-3,0 (03:50)-2,2 (00:00)0,0 l/m²78%1034,10,0 km/h (0 Bft) N-NO2,3 km/h (1 Bft) W-SW (01:15)
Ravensburg-Wernsreute511 m04:30-3,9-4,0 (03:35)-3,1 (14:55)0,0 l/m²95%1039,54,8 km/h (1 Bft) N-NO24,1 km/h (4 Bft) N (20:10)
Reichenbach an der Fils343 m04:30-4,6-4,7 (04:30)-2,7 (00:00)0,0 l/m²88%1038,31,6 km/h (1 Bft) O-NO6,4 km/h (2 Bft) N-NO (02:50)
Reinstetten559 m04:30-3,8-3,8 (03:25)-3,4 (00:05)0,0 l/m²95%1037,24,8 km/h (1 Bft) S12,9 km/h (3 Bft) S-SO (04:10)
Riedlingen530 m04:30-3,8-3,9 (03:15)-3,3 (00:00)0,0 l/m²95%1036,83,2 km/h (1 Bft) SO6,4 km/h (2 Bft) O-SO (02:20)
Rißtissen489 m04:30-2,6-2,6 (02:10)-2,1 (00:00)0,0 l/m²94%1034,20,0 km/h (0 Bft) S6,4 km/h (2 Bft) O-NO (01:20)
Rottweil-Hausen681 m04:30-5,3-5,7 (02:07)-4,3 (00:00)0,0 l/m²91%1037,13,2 km/h (1 Bft) S-SW9,7 km/h (2 Bft) N (03:22)
Schemmerhofen520 m04:30-3,4-3,4 (04:30)-2,8 (00:00)0,0 l/m²96%1036,54,8 km/h (1 Bft) S-SO8,0 km/h (2 Bft) S-SO (00:15)
Silbertal im Montafon (AT)884 m04:30-1,2-3,3 (00:05)-1,1 (04:10)0,0 l/m²95%1040,70,0 km/h (0 Bft) NW1,8 km/h (1 Bft) N (00:06)
Tettnang466 m04:30-2,9-3,3 (00:00)-2,5 (03:05)0,0 l/m²93%1036,74,8 km/h (1 Bft) N9,7 km/h (2 Bft) N (03:55)
Tuttlingen662 m04:26-8,0-8,0 (04:26)-6,2 (00:01)0,0 l/m²77%1034,40,0 km/h (0 Bft) N-NO5,5 km/h (1 Bft) NO (03:41)
Tuttlingen, Möhringer-Vorstadt711 m04:30-7,1-7,1 (04:30)-5,2 (14:55)0,0 l/m²94%1036,40,0 km/h (0 Bft) S11,3 km/h (2 Bft) N (10:55)
Ummendorf547 m04:30-4,4-4,4 (04:25)-3,6 (00:15)0,0 l/m²87%1037,84,8 km/h (1 Bft) S-SW11,3 km/h (2 Bft) O (01:05)
Ummendorf-Fischbach558 m04:30-4,5-4,5 (03:30)-3,9 (02:15)0,0 l/m²87%1037,54,8 km/h (1 Bft) S-SW11,3 km/h (2 Bft) S (00:00)
Waldburg707 m04:30-5,3-5,3 (03:30)-4,9 (00:00)0,0 l/m²95%1036,20,0 km/h (0 Bft) N6,4 km/h (2 Bft) N (00:25)
Waltenhofen im Allgäu720 m04:30-7,4-7,7 (03:40)-6,2 (00:00)0,0 l/m²92%1036,60,0 km/h (0 Bft) NW12,9 km/h (3 Bft) NW (10:00)
Wangen, Hans-Schnitzer-Weg569 m04:30-3,8-3,8 (04:30)-3,0 (01:55)0,0 l/m²67%1035,43,2 km/h (1 Bft) N3,2 km/h (1 Bft) N (00:10)
Wangen, Südring548 m04:30-3,8-3,8 (04:18)-3,2 (01:57)0,0 l/m²93%1036,23,2 km/h (1 Bft) NO9,7 km/h (2 Bft) N (02:07)
Weingarten500 m04:30-3,5-3,5 (03:30)-2,9 (00:10)0,0 l/m²93%1036,69,7 km/h (2 Bft) S-SO9,7 km/h (2 Bft) O (00:30)
Winterlingen785 m04:15-9,4-9,4 (04:15)-7,2 (00:00)0,0 l/m²92%1036,81,8 km/h (1 Bft) SW2,5 km/h (1 Bft) W (04:05)

niederschlagsdatenbank | info | login - erfassung

Sollten Sie Interesse haben, an der Niederschlagsdatenbank teilzunehmen, finden Sie > hier < weitere Informationen.
Datum: . . Kalender
Anmerkung:0,0 = nicht messbarer Niederschlag
 -  = kein Niederschlag
 k  = kumulierter Niederschlag

< 12.01.201914.01.2019 >


Niederschlagswerte vom 13.01.2019    -    derzeit 111 Stationen

Die Niederschlagswerte des gewählten Tages lassen sich durch Klicken auf das Datum sortieren.
Die Angaben sind in l/m².

Station10.01.11.01.12.01.13.01.14.01.15.01.16.01.Bemerkung 13.01.
Aichstetten Ulmenstraße 7-------
Aichstetten-Nestbaum Nestbaum-------
Albbruck Furmisstr. 180,5-22,538,54,8--
Ganzer Tag zeitweise ergiebiger Regen 5°C Nachts +4°C
Regen
Allmendingen Querqueviller Ring 6-4,312,523,53,5--
Regen Schneeregen
Amstetten-Reutti Gassenäcker 130,66,010,831,02,0--
Regen Schneeregen Schnee
Schneehöhe: 28 cm
Aulendorf Steinenbacher Weg 336,07,58,012,03,2--
Ablesung um 6:50 Uhr
Regen Schneeregen
Schneehöhe: 20 cm
Aulendorf-Blönried Heuweg 322,85,06,012,02,5--
Bad Bellingen Rheinstraße 76-------
Bad Buchau Hanfweiher 15,56,09,012,02,0--
Bad Saulgau Walserweg2,04,56,011,52,0--
Regen Schneeregen
Schneehöhe: 15 cm
Bad Saulgau-Hochberg Lampertsweiler Straße 123,04,23,510,51,8--
Bad Schussenried Konradstraße3,24,37,712,41,8--
Regen Nieselregen Schneeregen
Schneehöhe: 19 cm
Bad Schussenried Lortzingstrasse5,03,58,013,53,0--
Regen Schneeregen
Bad Schussenried Klosterstraße3,05,010,513,02,0--
Regen Schneeregen Schnee
Bad Schussenried Theodor-Storm-Strasse4,44,510,012,82,2--
Regen Schneeregen Schnee
Bad Schussenried-Hopferbach Unterer Öschweg 16/13,07,09,013,52,0--
Regen Schneeregen
Bad Schussenried-Lufthütte Hauptgasse 17-------
Bad Schussenried-Sattenbeuren Ortsstraße 7-------
Bad Schussenried-Schwaigfurt Schwaigfurt 22,56,011,014,51,2--
Bad Waldsee-Haisterkirch Zur Spitzenkapelle 15,110,99,017,31,0--
0/+3,5°C, DACHLAWINENWETTER: um die Mittagszeit einsetzender Schneefa [weiterlesen...]
Regen Schneeregen Schnee Bodennebel
Schneehöhe: 45 cm
Bad Wurzach-Seibranz Kimpflerhof 2 7,76,55,517,02,0--
Schneehöhe: 64 cm
Baienfurt Untere Bergstrasse 716,016,012,016,02,0--
Regen Schneeregen
Schneehöhe: 18 cm
Balzheim Hinterm Liess 195,02,010,016,01,5--
Regen Schneeregen
Schneehöhe: 14 cm
Berg-Kleintobel Kleintobel11,04,98,214,82,1--
Regen Schneeregen
Schneehöhe: 21 cm
Biberach Amriswilstrasse5,04,07,514,71,5--
Regen Nieselregen Schneeregen Schnee
Schneehöhe: 18-20 cm
Biberach Strölinweg---32,0 k1,5--
von ca 20 cm stark getaut und verdichtet z T nur unterschiedlichen Res [weiterlesen...]
Regen Schneeregen Schnee
Biberach Erlenweg-------
Biberach Neue Heimat 5-------
Biberach Mittelbergstraße 94,04,010,014,52,0--
Regen
Schneehöhe: 16 cm Rest
Biberach auf dem Lindele-------
Biberach-Bergerhausen Löcherstr.12,04,09,015,51,5--
Regen Schneeregen Schnee
Bierstetten Schloßbühl 63,54,36,411,22,0--
Schnee
Blaubeuren-Pappelau Sotzenhauserstr.7-21,019,030,0-3,0-
Sehr windig bis stürmisch
Regen Nieselregen Schneeregen Schnee
Schneehöhe: 39 cm
Bühlertal Wolfinstraße 163,03,014,027,0-4,0-
Regen
Dornstadt-Tomerdingen Maienweg 90,74,612,522,51,6-0,0
Schneehöhe: 18 cm
Dürnau Dorfäckerweg 53,54,55,510,02,0--
Regen Schneeregen Schnee
Eberhardzell Lilienweg6,96,29,714,01,20,10,0
Schneehöhe: 38 cm
Ebersbach-Roßwälden Appenwiesen0,72,19,224,00,70,0-
Schneehöhe: 4 cm
Ehingen Rosenstraße0,33,015,422,03,00,00,0
Regen Schneeregen Schnee
Schneehöhe: 5 cm
Ehingen Zanderstraße2,5------
Ehingen Schlaufenbühl-3,610,330,72,7--
Regen Schneeregen Schnee
Schneehöhe: 13 cm
Ehingen Schillerstraße-3,013,019,92,0--
Regen Schneeregen
Schneehöhe: 2,5 cm Rest
Ehingen-Herbertshofen Tobelweg 9-------
Eislingen Albstraße 1252,13,913,433,61,30,0-
Schneehöhe: Reste
Erbach-Bach Hauptstraße 241,02,511,016,02,7--
Regen Schneeregen Schnee
Schneehöhe: Reste
Erlenmoos Haldenweg 156,95,212,918,23,1--
Regen Schnee
Schneehöhe: 44 cm
Füramoos Hungersberg 10,00,00,011,75,50,70,0

Schneehöhe: 60 cm
Gutenzell Kleinser Berg 1-6,012,014,02,0--
Schneehöhe: 10cm
Gutenzell-Hürbel Bei der Sägmühle 13,03,510,014,02,0--
Regen
Herbertingen Drosselweg3,52,57,511,52,5--
Tauwetter mit böig bis stürmischem Wind der Regen und Schneeregen im [weiterlesen...]
Regen Schneeregen
Schneehöhe: 8cm
Herbertingen Hirschstrasse3,02,06,010,01,0--
Regen Schneeregen
Schneehöhe: 10cm
Hochdorf-Schweinhausen Lindenweg 2-12,98,616,72,3--
Schneehöhe: 25 cm
Hohentengen-Bremen Bremer Halde 43,02,06,013,02,0--
Regen Schnee
Schneehöhe: 6,0
Horgenzell-Ringgenweiler Ringgenweiler 6204,24,59,717,82,9--
Regen
Schneehöhe: 31 cm
Hüttisheim Ulmer Weg 23,03,013,015,02,0--
Regen Schneeregen
Schneehöhe: 5 cm
Illerkirchberg Mahdauweg 201,84,714,919,31,1--
Reste ist fast übertrieben, aber ein paar wenige Flecken gibts noch.
Regen Schneeregen Schnee
Schneehöhe: 4-5
Illerrieden-Wangen Am Muckenberg 12-------
Immenstaad Stockwiesen 10-------
Inzigkofen Butzenweg 10,02,05,812,23,0--
Regen Schneeregen Schnee
Schneehöhe: 8 cm
Isny Am Dreifingerbach 395,02,411,433,43,2--
Regen Schneeregen Schnee
Schneehöhe: 85 cm
Kirchberg Rosenstr. 76,04,48,014,02,2--
Regen Graupel
Schneehöhe: 26 cm
Kreuzthal-Steinberg-Alpe Im Kreuzbachthal 858,312,123,144,02,10,0-
Regen Schneeregen Schnee
Schneehöhe: 132 cm
Langenau Wasserstr. 54-12,03,010,520,04,51,0-
Schneeregen
Schneehöhe: Reste
Langenenslingen Schattenweiler Str. 180,61,88,412,62,20,0-
Regen Nieselregen Schnee Schneegriesel
Schneehöhe: 7 cm
Leutkirch Unterer Auenweg 259,05,213,822,01,50,1-
Regen Schneeregen Schnee
Leutkirch Nachtigallenweg 2811,06,015,025,02,0--
Schneehöhe: 55cm
Leutkirch-Adrazhofen Bergstraße 207,05,031,028,03,0--
Schneehöhe: 65 cm
Merklingen Millergasse 9-------
Mietingen Seerosenweg 10-------
Mietingen-Walpertshofen Bussenweg 31-------
Mittelbiberach-Reute Rindenmooser Straße 25,44,58,814,41,8--
Regen Schneeregen Schnee
Schneehöhe: 16 cm
Moosburg Käserweg 55,61,75,014,51,5--
Tauwetter, Nasskalt. Windig. Teils länger anhaltender Schneeregen, Re [weiterlesen...]
Regen Nieselregen Schneeregen
Schneehöhe: 15 cm
Münsingen-Rietheim In der Lise 202,85,211,826,86,0--
Regen Schneeregen Schnee
Schneehöhe: 48 cm
Neresheim Alfred-Delp-Straße 81,54,75,414,66,1--
Schneeregen
Schneehöhe: 10 cm
Oberdischingen Normannenstraße 7------16,8
Ochsenhausen Ehrensberger Weg 55,11,22,311,92,8-0,6
Regen Schneeregen Schnee
Schneehöhe: 20 cm
Öpfingen Hauptstraße 991,13,28,819,02,0--
Regen Schnee
Schneehöhe: 8cm
Ostrach Uhlandweg-14,06,010,52,5--
Regen Nieselregen Schneeregen Schnee
Schneehöhe: 8 cm
Pfaffenhofen-Kadeltshofen Mühlbachstraße 45,04,09,011,02,0--
Schneehöhe: Schneefelderreste
Pfullendorf Am Schweizersbild ----1,0--
Rangendingen Donaustraße 193,0-6,0-6,0--
Schneehöhe: Reste
Ravensburg Bleicherstraße5,97,110,912,02,6-1,3
Ravensburg-Schmalegg St.-Magdalena-Ring 426,55,010,019,51,50,00,0
Ravensburg-Wernsreute Wernsreute 251,62,27,823,02,0--
Regen Schneeregen
Schneehöhe: 1,0
Ravensburg-Weststadt Karl-Erb-Ring 1425,58,010,521,02,0--
Regen
Schneehöhe: 10 cm
Regensburg Orleansstraße 3-------
Riedhausen Blütenweg 133,42,84,811,42,6--
Temp. +0,9°C / +4,3°C,Windböen SW 37,5 km/h
Regen
Schneehöhe: 10 - 12
Riedlingen Berliner Str. 41-------
Riedlingen-Neufra Panoramaweg-------
Riedlingen-Neufra Riedlinger Strasse-------
Schelklingen-Gundershofen Schwarzer-Straße 14-7,022,025,05,0--
Temp. zw. +0,1°C und +3,3°C. Ganzer Tag nasser Schneefall. Am Abend [weiterlesen...]
Schneehöhe: 30 cm
Schemmerberg Drosselweg 95,03,510,524,02,0-0,5
Schwörstadt Schulstrasse 190,21,012,236,23,2--
Regen
Seekirch Haldenberg 7-------
Sigmaringendorf Weingartenstraße 7-2,45,112,22,7--
Regen Schneeregen Schnee
Tuttlingen-Möhringen Eßlinger Straße0,00,43,217,6---
Regen Schneeregen Schnee
Schneehöhe: 11 cm
Ulm Eberhardtstraße 75----30,01,80,0
Ummendorf Tulpenweg3,07,811,519,02,00,0-
nicht gemessen, da zu uneinheitlich
Regen Schneeregen Schnee
Schneehöhe: 12 cm
Ummendorf Friedrich-Schiller-Str.-------
Uttenweiler-Ahlen Seekircher Straße 82,83,88,212,02,0--
Regen
Vöhringen (Schwarzwald) Drosselweg 3-3,011,016,0-3,06,0
Waldburg Kastanienweg117,58,510,519,54,5--
Schneehöhe: 61 cm
Wangen-Bergerhöhe Berg 28,47,817,031,93,8--
Regen Schneeregen Schnee
Schneehöhe: 65 cm
Warthausen An der Schloßhalde -------
Warthausen Schwabenwiesen ---0,75,4--
Regen
Warthausen-Barabein Barabein 20-5,011,014,02,0--
Regen
Weingarten Laurastraße11,08,59,015,02,0--
+ 1,4 ° C um 5.15 Uhr
Regen Nieselregen Schneeregen Schnee
Schneehöhe: 17 cm
Weingarten Hoyerstraße-------
Weingarten Marienstraße5,08,09,515,01,5--
Regen Schneeregen Schnee
Schneehöhe: 12 cm
Wolfegg-Veesers Veesers 1-------
Wolpertswende Aulendorfer Str. 170,00,00,04,90,01,80,4
Regen Schneeregen
Schneehöhe: 25 cm

Stillgelegte Niederschlagsstationen    -    derzeit 50 Stationen

StationLetzte Meldung10.01.11.01.12.01.13.01.14.01.15.01.16.01.Bemerkung 13.01.
Allmannsweiler Eggatsweilerstr.2802.09.2014-------
Aulendorf-Rugetsweiler Erikaweg 325.07.2013-------
Aulendorf-Zollenreute Imterstraße 1209.02.2019-4,52,012,5---
Regen Schneeregen Schnee
Schneehöhe: 20cm
Bad Saulgau Willi-Burth-Straße19.09.2011-------
Bad Saulgau Eichendorffweg28.03.2013-------
Bad Saulgau Seewattenstraße 12815.01.2014-------
Bad Saulgau-Lampertsweiler Valentinstr. 2618.02.2015-------
Bad Schussenried-Steinhausen Drosselgasse 4/126.09.2012-------
Bad Waldsee-Michelwinnanden Michelberg 531.12.2014-------
Bad Waldsee-Osterhofen Hochwaldgasse 406.03.2015-------
Bad Waldsee-Steinach Hofraingasse 1510.11.2013-------
Bad Wurzach-Dietmanns Postweg 519.01.2019-------
Bad Wurzach-Haidgau Wengener Straße 507.10.2012-------
Bad Wurzach-Ziegelbach Ziegelbach-Greut 507.11.2014-------
Bergatreute Bolanden 113.02.2012-------
Betzenweiler Offinger Straße 505.01.2017-------
Burgrieden Am Nonnenberg 328.10.2013-------
Burgrieden-Rot Schmiedgasse 518.09.2013-------
Dettingen a. d. Iller Schleifweg 420.05.2019-------
Eberhardzell Schillerstraße05.07.2010-------
Ehingen Am Elzengraben17.06.2016-------
Gammertingen Schillerstraße 2216.01.2016-------
Griesingen Blumenstraße 906.10.2015-------
Günzburg Erlenbadweg 34 1/231.12.2010-------
Hoßkirch Kirchstraße 805.01.2018-------
Ingoldingen-Grodt Ingoldinger Weg 1919.11.2016-------
Kisslegg Kirchmoosstraße02.05.2011-------
Krauchenwies-Hausen Rosenrain 123.11.2013-------
Kressbronn Irisstraße 410.03.2010-------
Leutkirch-Ottmannshofen Spitalriedstraße 527.07.2012-------
Leutkirch-Rotis Rotis 5/208.05.2016-------
Leutkirch-Wuchzenhofen Untere Kirchstraße 18/119.09.2016-------
Mietingen Hangweg 1530.12.2017-------
Mössingen-Bästenhardt Weissdornweg 721.07.2014-------
Ostrach Heiligenberger Straße19.08.2013-------
Pfullendorf Ringstraße 18.03.2012-------
Ravensburg Olgastraße30.10.2016-------
Seltmans Amselweg 2209.04.2013-------
Stuttgart-Bad Cannstatt Beuthener Str. 6703.02.2013-------
Stuttgart-Möhringen Glashütter Weg 1023.04.2017-------
Stuttgart-Rohr Hirschsprung 307.11.2012-------
Talheim Im Schecken 2121.08.2016-------
Tannheim Eggmannstr. 42 22.10.2017-------
Tettnang-Ramsbach Jahnstr. 24/126.03.2011-------
Tuttlingen-Möhringen Belchenstraße01.01.2015-------
Ummendorf Bergstraße23.10.2017-------
Vogt Mühlwies 1822.05.2015-------
Wangen-Atzenberg Keplerweg 324.02.2019-------
Schneehöhe: Schneedecke
Weingarten Bischof-Sproll-Straße30.06.2011-------
Wilhelmsdorf Riedhauser Straße 28.10.2012-------
Wilhelmsdorf Seefeld20.08.2013-------
Wurmlingen An der Steig 3014.10.2016-------
Die Niederschlagswerte des gewählten Tages lassen sich durch Klicken auf das Datum sortieren.
Die Angaben sind in l/m².

Wetterbeobachtungen Legende:

  • Regen
  • Nieselregen
  • Schneeregen
  • Schnee
  • Graupel
  • Eiskörner
  • Hagel
  • Bodennebel
  • Gewitter
  • Nebelnässe
  • Schneegriesel

Grafische Darstellung der Tagesniederschläge vom 13.01.2019

< 12.01.201914.01.2019 >Monats- und Jahresniederschlag


 
wetterstationen
wetterstationen
- derzeit 80 Stationen
niederschlagsdatenbank
wetterstationen
- kartographische Darstellung
niederschlagsdatenbank
niederschlagsstationen
- derzeit 111 Stationen
niederschlagsdatenbank
niederschlagsstationen
- kartographische Darstellung
 
 
Di. 7.30 Uhr - Mi. 7.30 Uhr (MEZ)
1.Gutenzell
Kleinser Berg 1
3,0 l/m²
 
  treffpunkt & service
--- Anzeigen --------------------------------
zugriffe:
insgesamt: 45.733.486
aktueller monat: 222.046
heute: 171
momentan online: 7
 
 
monatshöchstwert: 653.625
vorheriger monat: 318.382
gestern: 12.706
tageshöchstwert: 51.297
 
wetterwarte süd
 
konradstraße 3
info@wetterwarte-sued.com
roland roth
 
88427 bad schussenried